Port Angeles, WA

10:39 AM PDT on October 18, 2017 (GMT -0700)
Fairchild International

Weather History for KCLM - March, 2013

Change the Weather History Date:

Wednesday, March 6, 2013

  Actual Average Record
Temperature  
Mean Temperature 41 °F -  
Max Temperature 43 °F 50 °F 59 °F (1965)
Min Temperature 39 °F 35 °F 22 °F (1951)
Degree Days  
Heating Degree Days 24    
Moisture  
Dew Point 38 °F    
Average Humidity 88    
Maximum Humidity 97    
Minimum Humidity 82    
Precipitation  
Precipitation 0.29 in - - ()
Sea Level Pressure  
Sea Level Pressure 29.72 in    
Wind  
Wind Speed 3 mph (ESE)    
Max Wind Speed 8 mph    
Max Gust Speed -    
Visibility 10 miles    
Events Rain    
Averages and records for this station are not official NWS values.
T = Trace of Precipitation, MM = Missing Value Source: NWS Daily Summary

Daily Weather History Graph

Daily Weather History Graph

Search for Another Location

Airport or City:

Trip Planner

Search our weather history database for the weather conditions in past years. The results will help you decide how hot, cold, wet, or windy it might be!

Date:

Astronomy

Mar. 06, 2013 Rise Set
Actual Time 6:44 AM PST 6:06 PM PST
Civil Twilight 6:13 AM PST 6:37 PM PST
Nautical Twilight 5:37 AM PST 7:13 PM PST
Astronomical Twilight 5:01 AM PST 7:50 PM PST
Moon 3:18 AM PST (3/6) 12:35 PM PST (3/6)
Length of Visible Light 12h 24m
Length of Day
11h 21m
Waning Crescent, 29% of the Moon is Illuminated
Mar 6
Waning Crescent
Mar 11
New
Mar 19
First Quarter
Mar 27
Full
Apr 2
Last Quarter

Hourly Weather History & Observations

Time (PST) Temp. Windchill Dew Point Humidity Pressure Visibility Wind Dir Wind Speed Gust Speed Precip Events Conditions
12:19 AM 41.0 °F 37.1 °F 37.9 °F 89% 29.73 in 10.0 mi SSE 5.8 mph - N/A   Overcast
12:51 AM 41.0 °F 38.0 °F 39.2 °F 93% 29.72 in 10.0 mi SE 4.6 mph - N/A   Overcast
12:53 AM 41.0 °F 38.0 °F 39.0 °F 93% 29.73 in 10.0 mi ESE 4.6 mph - N/A   Overcast
12:59 AM 41.0 °F - 39.0 °F 93% 29.72 in 10.0 mi Calm Calm - N/A   Overcast
1:53 AM 42.1 °F - 37.9 °F 85% 29.72 in 10.0 mi Calm Calm - N/A   Overcast
2:53 AM 42.1 °F 37.7 °F 39.0 °F 89% 29.70 in 10.0 mi SSE 6.9 mph - N/A   Overcast
3:53 AM 42.1 °F 37.7 °F 39.0 °F 89% 29.68 in 10.0 mi Variable 6.9 mph - 0.00 in   Overcast
4:36 AM 42.1 °F 39.2 °F 37.9 °F 85% 29.66 in 10.0 mi Variable 4.6 mph - N/A   Overcast
4:53 AM 42.1 °F - 37.9 °F 85% 29.67 in 10.0 mi Calm Calm - N/A   Overcast
5:32 AM 42.1 °F 39.2 °F 37.9 °F 85% 29.66 in 10.0 mi East 4.6 mph - 0.00 in Rain Light Rain
5:53 AM 42.1 °F 39.2 °F 39.0 °F 89% 29.66 in 10.0 mi East 4.6 mph - 0.00 in Rain Light Rain
6:16 AM 42.1 °F 38.4 °F 39.0 °F 89% 29.65 in 10.0 mi East 5.8 mph - 0.00 in Rain Light Rain
6:53 AM 42.1 °F 39.2 °F 39.0 °F 89% 29.65 in 10.0 mi Variable 4.6 mph - 0.01 in Rain Light Rain
7:36 AM 42.1 °F 39.2 °F 39.0 °F 89% 29.63 in 10.0 mi East 4.6 mph - 0.01 in Rain Light Rain
7:53 AM 42.1 °F 37.7 °F 39.0 °F 89% 29.64 in 10.0 mi ESE 6.9 mph - 0.01 in Rain Light Rain
8:53 AM 42.1 °F 37.1 °F 39.0 °F 89% 29.65 in 10.0 mi SE 8.1 mph - 0.02 in Rain Light Rain
9:53 AM 43.0 °F 38.8 °F 39.0 °F 86% 29.65 in 10.0 mi SSE 6.9 mph - 0.01 in Rain Light Rain
10:53 AM 43.0 °F 39.5 °F 39.0 °F 86% 29.66 in 10.0 mi South 5.8 mph - 0.01 in Rain Light Rain
11:53 AM 43.0 °F 41.3 °F 37.9 °F 82% 29.67 in 10.0 mi East 3.5 mph - 0.02 in Rain Light Rain
12:53 PM 42.1 °F 40.2 °F 37.9 °F 85% 29.68 in 10.0 mi East 3.5 mph - 0.03 in Rain Light Rain
1:16 PM 42.1 °F 40.2 °F 37.9 °F 85% 29.68 in 9.0 mi NE 3.5 mph - 0.02 in Rain Light Rain
1:36 PM 43.0 °F - 37.9 °F 82% 29.68 in 10.0 mi Calm Calm - 0.03 in Rain Light Rain
1:53 PM 43.0 °F - 37.9 °F 82% 29.69 in 10.0 mi Calm Calm - 0.03 in Rain Light Rain
2:31 PM 42.1 °F - 37.9 °F 85% 29.70 in 10.0 mi Calm Calm - 0.02 in Rain Light Rain
2:53 PM 42.1 °F - 37.9 °F 85% 29.71 in 10.0 mi Calm Calm - 0.03 in Rain Light Rain
3:06 PM 42.1 °F - 37.0 °F 82% 29.71 in 10.0 mi Calm Calm - 0.01 in Rain Light Rain
3:25 PM 42.1 °F - 37.0 °F 82% 29.71 in 10.0 mi Calm Calm - 0.02 in Rain Light Rain
3:53 PM 42.1 °F - 37.9 °F 85% 29.73 in 10.0 mi Calm Calm - 0.03 in Rain Light Rain
4:03 PM 42.1 °F - 37.9 °F 85% 29.72 in 10.0 mi Calm Calm - 0.00 in Rain Light Rain
4:18 PM 42.1 °F - 39.0 °F 89% 29.73 in 10.0 mi Calm Calm - 0.00 in Rain Light Rain
4:53 PM 42.1 °F - 37.9 °F 85% 29.74 in 10.0 mi Calm Calm - 0.01 in Rain Light Rain
5:53 PM 41.0 °F - 39.0 °F 93% 29.76 in 10.0 mi Calm Calm - 0.02 in Rain Light Rain
6:32 PM 41.0 °F - 37.9 °F 89% 29.77 in 10.0 mi Calm Calm - 0.01 in Rain Light Rain
6:53 PM 41.0 °F - 39.0 °F 93% 29.78 in 10.0 mi Calm Calm - 0.02 in Rain Light Rain
7:53 PM 41.0 °F - 39.0 °F 93% 29.80 in 10.0 mi Calm Calm - 0.01 in Rain Light Rain
8:53 PM 39.9 °F 37.8 °F 37.9 °F 93% 29.82 in 10.0 mi WSW 3.5 mph - 0.01 in Rain Light Rain
9:43 PM 41.0 °F - 39.0 °F 93% 29.83 in 10.0 mi Calm Calm - 0.00 in   Overcast
9:53 PM 39.9 °F - 39.0 °F 97% 29.84 in 10.0 mi Calm Calm - 0.00 in   Overcast
10:53 PM 41.0 °F 36.4 °F 37.9 °F 89% 29.86 in 10.0 mi WSW 6.9 mph - 0.01 in Rain Light Rain
11:53 PM 39.9 °F - 39.0 °F 97% 29.88 in 10.0 mi Calm Calm - 0.01 in Rain Light Rain